{"data":{"norad_id":55465,"epoch":"2026-05-24T17:34:22.527552Z","epoch_age_seconds":92193,"freshness":"FRESH","line1":"1 55465U 23015S   26144.73220518 -.00002938  00000+0 -97277-4 0  9990","line2":"2 55465  43.0032 259.1068 0001304 267.9152  92.1550 15.27575993182354","mean_motion":15.27575993,"eccentricity":0.0001304,"inclination_deg":43.0032,"raan_deg":259.1068,"arg_perigee_deg":267.9152,"mean_anomaly_deg":92.155,"bstar":-9.7277e-5,"rev_number":18235,"period_min":94.266995985711,"perigee_km":482.16639423387,"apogee_km":483.95579469691,"semimajor_km":6861.1980944654,"source":"CELESTRAK","updated_at":"2026-05-25T13:38:17.805719Z"}}